Temp
59 56 56 58 56 56 56 56 57 59 59 60 60 59 59 58 58 58 58 60 60 60
59 58 57 57 57 56 57 58 58 59 59 60 60 59 59 59 60 61 60 60 61 62
62 59 58 58 57 57 57 58 58 59 59 59 59 60 59 60 62 62 62 60 62 62
61 60 59 58 58 58 58 58 59 59 59 59 59 59 59 61 63 62 62 62 61 61
61 60 59 58 58 58 58 59 60 60 60 59 59 59 60 61 63 62 61 61 62 61
60 60 59 58 59 59 59 59 60 60 60 60 60 59 58 61 63 63 62 62 62 61
60 60 59 59 59 60 60 60 60 60 61 60 60 60 59 59 61 61 61 62 63 62
60 61 60 59 59 60 60 60 61 61 61 61 61 61 59 59 59 61 60 61 62 62
61 62 61 60 59 60 60 60 61 60 61 60 61 49 54 59 61 61 61 61 61 60
62 63 62 61 60 59 57 58 58 59 59 59 57 48 50 54 61 61 60 61 61 62
64 62 61 60 59 56 56 56 56 57 57 58 57 48 49 53 61 61 60 61 61 61
64 61 60 59 57 55 55 55 56 56 57 57 56 47 47 56 61 60 60 61 61 62
63 62 60 58 56 56 55 56 59 58 57 54 56 45 47 56 59 57 58 58 58 52
62 62 60 58 57 56 55 55 55 58 56 56 56 52 46 50 59 59 56 57 55 55
MSLP
1007.56 1007.89 1007.97 1007.91 1008.01 1008.13 1008.18 1008.24 1008.18 1008.10 1008.17 1008.26 1008.38 1008.41 1008.63 1008.91 1009.16 1009.37 1009.61 1009.81 1009.93 1009.95
1007.54 1007.85 1007.91 1007.89 1008.06 1008.18 1008.15 1008.23 1008.20 1008.17 1008.29 1008.43 1008.52 1008.63 1008.84 1009.16 1009.48 1009.55 1009.87 1010.08 1010.16 1010.25
1007.44 1007.65 1007.78 1007.92 1008.15 1008.26 1008.28 1008.30 1008.28 1008.37 1008.50 1008.61 1008.72 1009.00 1009.21 1009.39 1009.64 1009.74 1010.16 1010.37 1010.58 1010.87
1007.42 1007.53 1007.71 1007.93 1008.16 1008.31 1008.40 1008.34 1008.38 1008.44 1008.73 1008.86 1009.10 1009.37 1009.61 1009.78 1009.74 1009.93 1010.33 1010.77 1011.00 1011.22
1007.25 1007.40 1007.72 1007.98 1008.22 1008.37 1008.42 1008.41 1008.37 1008.59 1008.87 1009.10 1009.37 1009.68 1009.92 1010.17 1010.15 1010.33 1010.69 1011.10 1011.50 1011.82
1007.32 1007.48 1007.87 1008.06 1008.30 1008.40 1008.52 1008.62 1008.63 1008.72 1009.06 1009.33 1009.68 1009.97 1010.23 1010.61 1010.79 1010.83 1011.14 1011.38 1011.74 1012.11
1007.37 1007.59 1007.94 1008.13 1008.33 1008.49 1008.65 1008.81 1008.97 1009.09 1009.26 1009.55 1009.92 1010.22 1010.50 1010.95 1011.26 1011.38 1011.60 1011.85 1012.20 1012.59
1007.44 1007.54 1007.99 1008.24 1008.46 1008.66 1008.94 1009.04 1009.14 1009.41 1009.76 1010.07 1010.37 1010.71 1010.99 1011.26 1011.60 1011.85 1012.19 1012.40 1012.68 1013.03
1007.48 1007.74 1008.10 1008.41 1008.66 1008.73 1009.08 1009.27 1009.44 1009.70 1010.11 1010.59 1010.77 1011.07 1011.36 1011.52 1011.87 1012.20 1012.46 1012.77 1013.19 1013.63
1007.43 1007.87 1008.17 1008.46 1008.84 1009.10 1009.35 1009.48 1009.74 1010.08 1010.38 1010.79 1011.22 1011.37 1011.57 1011.85 1012.21 1012.46 1012.83 1013.06 1013.49 1014.04
1007.29 1007.81 1008.23 1008.64 1009.06 1009.35 1009.65 1009.92 1010.15 1010.44 1010.70 1011.01 1011.38 1011.66 1012.01 1012.35 1012.68 1012.89 1013.22 1013.47 1013.82 1014.24
1007.16 1007.76 1008.39 1008.81 1009.22 1009.53 1009.85 1010.14 1010.40 1010.71 1010.95 1011.21 1011.64 1012.03 1012.43 1012.68 1012.92 1013.25 1013.70 1013.95 1014.46 1014.85
1007.06 1007.58 1008.15 1008.71 1009.34 1009.62 1009.92 1010.21 1010.36 1010.90 1011.15 1011.37 1011.94 1012.50 1012.73 1013.14 1013.35 1013.73 1014.11 1014.43 1014.95 1015.23
1006.82 1007.36 1007.88 1008.54 1009.08 1009.65 1010.15 1010.54 1010.78 1011.03 1011.42 1011.67 1011.89 1012.55 1012.78 1013.03 1013.42 1013.83 1014.38 1014.84 1015.25 1015.42
Wind_Speed
5 3 2 1 1 2 2 3 2 3 3 3 4 3 4 3 3 3 3 5 4 3
4 4 3 3 2 2 3 2 3 3 3 3 4 3 5 4 5 5 5 5 6 5
5 5 4 3 4 3 3 2 3 3 3 3 4 5 5 6 6 6 6 5 9 7
5 5 4 3 3 3 3 3 3 3 5 5 5 5 7 6 6 7 8 8 8 9
5 5 4 4 4 3 4 3 4 5 5 5 5 5 8 8 6 7 8 8 10 10
5 5 4 4 4 3 4 4 4 5 6 6 6 6 6 9 9 6 6 7 8 10
5 5 5 5 5 4 4 5 5 4 6 6 6 6 6 8 10 5 5 6 8 8
5 4 6 5 5 5 4 3 5 6 5 5 5 4 6 6 7 7 6 6 6 6
6 5 6 6 5 5 5 4 5 5 6 6 3 9 10 8 6 6 6 7 8 9
6 6 6 6 5 4 5 4 5 6 6 6 6 9 10 11 5 6 5 7 8 8
6 6 6 6 6 5 3 5 5 5 6 7 6 11 11 10 5 6 6 7 7 9
6 7 6 6 6 3 5 3 4 4 6 8 6 7 10 7 5 5 6 5 6 8
7 7 7 7 7 3 3 5 5 6 5 7 6 8 11 8 4 5 4 3 5 5
8 10 7 7 5 6 5 5 4 5 4 6 6 7 9 12 5 5 4 4 3 3
Wind_Direction
156 161 186 155 133 170 128 150 176 118 102 90 80 108 140 113 113 107 101 99 100 116
157 173 161 114 108 147 120 156 158 138 108 79 89 104 109 101 102 109 99 99 99 110
162 185 159 127 135 136 125 141 142 137 120 97 100 103 89 98 115 112 100 99 105 105
149 174 168 147 156 167 146 155 148 140 125 128 119 99 91 89 101 103 104 98 100 101
155 154 161 152 166 169 147 143 143 129 113 108 103 104 108 104 114 93 100 110 114 113
149 144 150 143 148 160 142 133 129 124 121 124 120 111 95 114 115 114 100 115 113 120
149 154 145 131 151 146 139 132 130 122 117 122 113 107 110 110 119 105 78 91 109 117
129 147 125 126 146 125 119 126 127 121 98 96 108 116 109 105 109 116 99 94 91 105
135 146 134 128 142 141 128 123 135 130 123 124 108 115 117 111 110 112 113 111 107 111
159 156 150 136 132 129 131 124 128 118 122 127 113 133 121 106 97 111 110 119 120 117
158 145 146 140 138 125 107 112 125 130 115 119 145 135 128 118 107 106 100 101 106 120
151 140 152 153 153 140 123 119 119 126 129 133 154 143 136 131 113 113 111 126 115 148
150 152 160 154 160 154 134 136 127 116 129 135 143 157 160 136 122 120 115 97 121 176
159 158 159 146 148 139 131 125 124 123 123 137 151 161 179 147 148 152 147 154 167 184